Silver City, NM

10:44 PM MST on December 10, 2019 (GMT -0700)
Grant County

Weather History for KSVC - October, 2019

Change the Weather History Date:

Monday, October 28, 2019

  Actual Average (WUND) Record (WUND)
Temperature  
Mean Temperature 52 °F -  
Max Temperature 65 °F - - (-1)
Min Temperature 40 °F - - (-1)
Degree Days  
Heating Degree Days 12    
Growing Degree Days 2 (Base 50)    
Moisture  
Dew Point 26 °F    
Average Humidity 38    
Maximum Humidity 70    
Minimum Humidity 21    
Precipitation  
Precipitation 0.00 in - - ()
Sea Level Pressure  
Sea Level Pressure 29.97 in    
Wind  
Wind Speed 10 mph (WNW)    
Max Wind Speed 29 mph    
Max Gust Speed 32 mph    
Visibility 10 miles    
Events      
Averages and records for this station are not official NWS values.
T = Trace of Precipitation, MM = Missing Value Source: NWS Daily Summary

Daily Weather History Graph

Daily Weather History Graph

Search for Another Location

Airport or City:

Astronomy

Oct. 28, 2019 Rise Set
Actual Time 7:26 AM MDT 6:25 PM MDT
Civil Twilight 7:01 AM MDT 6:50 PM MDT
Nautical Twilight 6:32 AM MDT 7:19 PM MDT
Astronomical Twilight 6:03 AM MDT 7:48 PM MDT
Moon 7:52 AM MDT (10/28) 7:13 PM MDT (10/28)
Length of Visible Light 11h 49m
Length of Day
10h 59m
New Moon, 1% of the Moon is Illuminated
Oct 28
New Moon
Nov 4
First Quarter
Nov 12
Full
Nov 19
Last Quarter
Nov 26
New

Hourly Weather History & Observations

Time (MDT) Temp. Windchill Dew Point Humidity Pressure Visibility Wind Dir Wind Speed Gust Speed Precip Events Conditions
12:15 AM 50.9 °F - 27.1 °F 40% 29.95 in 10.0 mi SW 8.1 mph - N/A   Clear
12:35 AM 50.5 °F - 27.9 °F 42% 29.95 in 10.0 mi SW 6.9 mph - N/A   Clear
12:55 AM 51.8 °F - 29.1 °F 42% 29.95 in 10.0 mi SW 5.8 mph - N/A   Clear
1:15 AM 52.2 °F - 30.9 °F 44% 29.94 in 10.0 mi WSW 9.2 mph - N/A   Clear
1:35 AM 54.5 °F - 32.2 °F 43% 29.94 in 10.0 mi SW 8.1 mph - N/A   Clear
1:55 AM 54.5 °F - 32.2 °F 43% 29.93 in 10.0 mi SSW 6.9 mph - N/A   Clear
2:15 AM 51.1 °F - 32.0 °F 48% 29.94 in 10.0 mi SSW 5.8 mph - N/A   Clear
2:35 AM 53.4 °F - 33.3 °F 46% 29.94 in 10.0 mi SW 6.9 mph - N/A   Clear
2:55 AM 52.2 °F - 33.1 °F 48% 29.94 in 10.0 mi West 6.9 mph - N/A   Clear
3:15 AM 52.7 °F - 34.3 °F 50% 29.93 in 10.0 mi WSW 8.1 mph - N/A   Clear
3:35 AM 49.6 °F - 34.2 °F 55% 29.92 in 10.0 mi WSW 6.9 mph - N/A   Clear
3:55 AM 49.8 °F - 34.7 °F 56% 29.92 in 10.0 mi SW 5.8 mph - N/A   Clear
4:15 AM 49.3 °F - 34.9 °F 58% 29.92 in 10.0 mi WSW 4.6 mph - N/A   Clear
4:35 AM 44.8 °F 43.3 °F 33.6 °F 65% 29.91 in 10.0 mi WSW 3.5 mph - N/A   Clear
4:55 AM 43.2 °F 40.5 °F 32.5 °F 66% 29.92 in 10.0 mi WNW 4.6 mph - N/A   Clear
5:15 AM 44.1 °F 39.5 °F 33.1 °F 65% 29.94 in 10.0 mi NNW 8.1 mph - N/A   Clear
5:35 AM 45.1 °F 42.0 °F 32.9 °F 62% 29.94 in 10.0 mi WNW 5.8 mph - N/A   Clear
5:55 AM 40.1 °F 36.9 °F 31.1 °F 70% 29.95 in 10.0 mi NNW 4.6 mph - N/A   Clear
6:15 AM 44.6 °F 38.4 °F 31.5 °F 60% 29.95 in 10.0 mi WNW 12.7 mph - N/A   Clear
6:35 AM 52.0 °F - 29.1 °F 41% 29.96 in 10.0 mi WNW 15.0 mph - N/A   Clear
6:55 AM 51.6 °F - 28.4 °F 41% 29.97 in 10.0 mi WNW 13.8 mph - N/A   Clear
7:15 AM 53.2 °F - 29.3 °F 40% 29.97 in 10.0 mi West 11.5 mph 17.3 mph N/A   Clear
7:35 AM 52.0 °F - 29.3 °F 42% 29.98 in 10.0 mi WNW 10.4 mph 20.7 mph N/A   Clear
7:55 AM 52.3 °F - 29.7 °F 42% 29.98 in 10.0 mi West 20.7 mph 26.5 mph N/A   Clear
8:15 AM 53.8 °F - 28.0 °F 37% 30.00 in 10.0 mi West 21.9 mph 27.6 mph N/A   Clear
8:35 AM 54.7 °F - 27.3 °F 35% 30.00 in 10.0 mi WSW 17.3 mph 26.5 mph N/A   Clear
8:55 AM 54.7 °F - 28.4 °F 36% 30.00 in 10.0 mi West 20.7 mph 28.8 mph N/A   Clear
9:15 AM 55.4 °F - 29.8 °F 38% 30.01 in 10.0 mi West 20.7 mph 28.8 mph N/A   Clear
9:35 AM 56.5 °F - 29.7 °F 36% 30.01 in 10.0 mi West 24.2 mph 29.9 mph N/A   Clear
9:55 AM 57.6 °F - 30.6 °F 36% 30.01 in 10.0 mi West 28.8 mph 32.2 mph N/A   Clear
11:21 AM 60.8 °F - 30.2 °F 31% 30.03 in 10.0 mi West 24.2 mph 29.9 mph N/A   Clear
3:35 PM 65.1 °F - 29.7 °F 26% 29.98 in 10.0 mi West 17.3 mph 24.2 mph N/A   Clear
3:55 PM 64.4 °F - 28.8 °F 26% 29.98 in 10.0 mi West 16.1 mph 20.7 mph N/A   Clear
4:15 PM 64.6 °F - 28.0 °F 25% 29.97 in 10.0 mi WNW 18.4 mph - N/A   Clear
4:35 PM 63.7 °F - 26.6 °F 25% 29.98 in 10.0 mi West 18.4 mph 23.0 mph N/A   Clear
4:55 PM 63.0 °F - 24.8 °F 23% 29.97 in 10.0 mi West 15.0 mph - N/A   Clear
5:15 PM 63.0 °F - 23.2 °F 22% 29.97 in 10.0 mi West 19.6 mph - N/A   Clear
5:35 PM 61.9 °F - 21.6 °F 21% 29.97 in 10.0 mi West 18.4 mph - N/A   Clear
5:55 PM 61.0 °F - 21.2 °F 22% 29.98 in 10.0 mi West 15.0 mph 20.7 mph N/A   Clear
6:15 PM 59.0 °F - 20.3 °F 22% 29.98 in 10.0 mi West 8.1 mph - N/A   Clear
6:35 PM 56.5 °F - 19.8 °F 24% 29.98 in 10.0 mi WNW 11.5 mph - N/A   Clear
6:55 PM 52.9 °F - 19.2 °F 27% 29.98 in 10.0 mi WNW 12.7 mph - N/A   Clear
7:15 PM 52.2 °F - 18.3 °F 26% 29.98 in 10.0 mi NW 12.7 mph - N/A   Clear
7:35 PM 49.5 °F - 18.0 °F 29% 29.99 in 10.0 mi NW 12.7 mph - N/A   Clear
7:55 PM 49.8 °F - 17.6 °F 28% 29.99 in 10.0 mi NW 12.7 mph - N/A   Clear
8:15 PM 48.2 °F - 17.1 °F 29% 29.99 in 10.0 mi NNW 10.4 mph - N/A   Clear
8:35 PM 47.8 °F - 16.5 °F 29% 29.99 in 10.0 mi North 9.2 mph - N/A   Clear
8:55 PM 47.5 °F - 16.7 °F 29% 29.99 in 10.0 mi North 10.4 mph - N/A   Clear
9:15 PM 47.7 °F - 16.2 °F 28% 30.00 in 10.0 mi NNW 8.1 mph - N/A   Clear
9:35 PM 49.3 °F - 15.4 °F 26% 29.99 in 10.0 mi NNW 12.7 mph - N/A   Clear
9:55 PM 48.2 °F - 14.9 °F 26% 30.01 in 10.0 mi NNW 11.5 mph - N/A   Clear
10:15 PM 47.1 °F - 15.1 °F 28% 30.02 in 10.0 mi NNW 8.1 mph - N/A   Clear
10:35 PM 46.4 °F 41.5 °F 14.9 °F 28% 30.02 in 10.0 mi NNW 10.4 mph - N/A   Clear
10:55 PM 44.6 °F 40.7 °F 14.4 °F 30% 30.02 in 10.0 mi NNW 6.9 mph - N/A   Clear
11:15 PM 43.9 °F 39.3 °F 13.1 °F 29% 30.02 in 10.0 mi NNW 8.1 mph - N/A   Clear
11:35 PM 43.3 °F 40.7 °F 12.9 °F 29% 30.02 in 10.0 mi NNW 4.6 mph - N/A   Clear
11:55 PM 45.7 °F 42.0 °F 10.6 °F 24% 30.02 in 10.0 mi North 6.9 mph - N/A   Clear